Year,Month,Day,Hour,Minute,Value (Times are PST for temperature in C)
2013,09,12,09,17,19.20
2013,09,12,09,18,19.30
2013,09,12,09,19,19.40
2013,09,12,09,20,19.50
2013,09,12,09,21,19.60
2013,09,12,09,22,19.70
2013,09,12,09,23,19.80
2013,09,12,09,24,19.90
2013,09,12,09,25,19.90
2013,09,12,09,26,19.90
2013,09,12,09,27,20.10
2013,09,12,09,28,20.10
2013,09,12,09,29,20.20
2013,09,12,09,30,20.20
2013,09,12,09,31,20.20
2013,09,12,09,32,20.30
2013,09,12,09,33,20.40
2013,09,12,09,34,20.40
2013,09,12,09,35,20.50
2013,09,12,09,36,20.50
2013,09,12,09,37,20.50
2013,09,12,09,38,20.50
2013,09,12,09,39,20.50
2013,09,12,09,40,20.60
2013,09,12,09,41,20.70
2013,09,12,09,42,20.70
2013,09,12,09,43,20.70
2013,09,12,09,44,20.80
2013,09,12,09,45,20.80
2013,09,12,09,46,20.80
2013,09,12,09,47,20.80
2013,09,12,09,48,20.90
2013,09,12,09,49,20.90
2013,09,12,09,50,21.00
2013,09,12,09,51,21.10
2013,09,12,09,52,21.00
2013,09,12,09,53,21.00
2013,09,12,09,54,21.00
2013,09,12,09,55,21.00
2013,09,12,09,56,21.00
2013,09,12,09,57,21.00
2013,09,12,09,58,21.00
2013,09,12,09,59,21.10
2013,09,12,10,00,21.10
2013,09,12,10,01,21.10
2013,09,12,10,02,21.10
2013,09,12,10,03,21.10
2013,09,12,10,04,21.10
2013,09,12,10,05,21.00
2013,09,12,10,06,21.00
2013,09,12,10,07,21.10
2013,09,12,10,08,21.10
2013,09,12,10,09,21.20
2013,09,12,10,10,21.30
2013,09,12,10,11,21.30
2013,09,12,10,12,21.30
2013,09,12,10,13,21.30
2013,09,12,10,14,21.30
2013,09,12,10,15,21.30
2013,09,12,10,16,21.30
2013,09,12,10,17,21.40
2013,09,12,10,18,21.60
2013,09,12,10,19,21.60
2013,09,12,10,20,21.60
2013,09,12,10,21,21.60
2013,09,12,10,22,21.60
2013,09,12,10,23,21.60
2013,09,12,10,24,21.60
2013,09,12,10,25,21.70
2013,09,12,10,26,21.80
2013,09,12,10,27,21.90
2013,09,12,10,28,22.00
2013,09,12,10,29,22.10
2013,09,12,10,30,22.10
2013,09,12,10,31,22.20
2013,09,12,10,32,22.10
2013,09,12,10,33,22.10
2013,09,12,10,34,22.00
2013,09,12,10,35,22.00
2013,09,12,10,36,21.80
2013,09,12,10,37,21.80
2013,09,12,10,38,21.70
2013,09,12,10,39,21.80
2013,09,12,10,40,21.90
2013,09,12,10,41,22.00
2013,09,12,10,42,22.00
2013,09,12,10,43,22.10
2013,09,12,10,44,22.20
2013,09,12,10,45,22.30
2013,09,12,10,46,22.40
2013,09,12,10,47,22.50
2013,09,12,10,48,22.50
2013,09,12,10,49,22.60
2013,09,12,10,50,22.60
2013,09,12,10,51,22.60
2013,09,12,10,52,22.60
2013,09,12,10,53,22.60
2013,09,12,10,54,22.40
2013,09,12,10,55,22.40
2013,09,12,10,56,22.30
2013,09,12,10,57,22.10
2013,09,12,10,58,22.00
2013,09,12,10,59,21.90
2013,09,12,11,00,21.70
2013,09,12,11,01,21.60
2013,09,12,11,02,21.60
2013,09,12,11,03,21.60
2013,09,12,11,04,21.60
2013,09,12,11,05,21.50
2013,09,12,11,06,21.30
2013,09,12,11,07,21.30
2013,09,12,11,08,21.20
2013,09,12,11,09,21.10
2013,09,12,11,10,21.10
2013,09,12,11,11,21.10
2013,09,12,11,12,21.10
2013,09,12,11,13,21.20
2013,09,12,11,14,21.10
2013,09,12,11,15,21.00
2013,09,12,11,16,20.80
2013,09,12,11,17,20.60
2013,09,12,11,18,20.50
2013,09,12,11,19,20.40
2013,09,12,11,20,20.50
2013,09,12,11,21,20.50
2013,09,12,11,22,20.50
2013,09,12,11,23,20.50
2013,09,12,11,24,20.50
2013,09,12,11,25,20.50
2013,09,12,11,26,20.60
2013,09,12,11,27,20.60
2013,09,12,11,28,20.70
2013,09,12,11,29,20.80
2013,09,12,11,30,21.00
2013,09,12,11,31,21.10
2013,09,12,11,32,21.30
2013,09,12,11,33,21.30
2013,09,12,11,34,21.40
2013,09,12,11,35,21.40
2013,09,12,11,36,21.40
2013,09,12,11,37,21.60
2013,09,12,11,38,21.60
2013,09,12,11,39,21.80
2013,09,12,11,40,22.00
2013,09,12,11,41,22.00
2013,09,12,11,42,22.00
2013,09,12,11,43,22.20
2013,09,12,11,44,22.30
2013,09,12,11,45,22.40
2013,09,12,11,46,22.40
2013,09,12,11,47,22.40
2013,09,12,11,48,22.50
2013,09,12,11,49,22.50
2013,09,12,11,50,22.50
2013,09,12,11,51,22.40
2013,09,12,11,52,22.30
2013,09,12,11,53,22.10
2013,09,12,11,54,22.00
2013,09,12,11,55,22.00
2013,09,12,11,56,21.90
2013,09,12,11,57,21.90
2013,09,12,11,58,21.90
2013,09,12,11,59,21.80
2013,09,12,12,00,21.60
2013,09,12,12,01,21.60
2013,09,12,12,02,21.60
2013,09,12,12,03,21.60
2013,09,12,12,04,21.70
2013,09,12,12,05,21.70
2013,09,12,12,06,21.70
2013,09,12,12,07,21.70
2013,09,12,12,08,21.70
2013,09,12,12,09,21.80
2013,09,12,12,10,21.90
2013,09,12,12,11,22.00
2013,09,12,12,12,22.00
2013,09,12,12,13,22.10
2013,09,12,12,14,22.20
2013,09,12,12,15,22.30
2013,09,12,12,16,22.50
2013,09,12,12,17,22.60
2013,09,12,12,18,22.80
2013,09,12,12,19,22.90
2013,09,12,12,20,23.00
2013,09,12,12,21,23.10
2013,09,12,12,22,23.10
2013,09,12,12,23,23.10
2013,09,12,12,24,23.00
2013,09,12,12,25,22.90
2013,09,12,12,26,23.00
2013,09,12,12,27,23.10
2013,09,12,12,28,23.10
2013,09,12,12,29,23.10
2013,09,12,12,30,23.10
2013,09,12,12,31,23.10
2013,09,12,12,32,23.10
2013,09,12,12,33,23.20
2013,09,12,12,34,23.10
2013,09,12,12,35,23.00
2013,09,12,12,36,23.00
2013,09,12,12,37,23.10
2013,09,12,12,38,22.90
2013,09,12,12,39,22.90
2013,09,12,12,40,22.90
2013,09,12,12,41,22.90
2013,09,12,12,42,22.90
2013,09,12,12,43,23.00
2013,09,12,12,44,23.10
2013,09,12,12,45,23.20
2013,09,12,12,46,23.20
2013,09,12,12,47,23.10
2013,09,12,12,48,23.10
2013,09,12,12,49,23.00
2013,09,12,12,50,22.90
2013,09,12,12,51,22.90
2013,09,12,12,52,22.90
2013,09,12,12,53,22.90
2013,09,12,12,54,22.90
2013,09,12,12,55,22.90
2013,09,12,12,56,23.00
2013,09,12,12,57,23.10
2013,09,12,12,58,23.20
2013,09,12,12,59,23.30
2013,09,12,13,00,23.30
2013,09,12,13,01,23.30
2013,09,12,13,02,23.40
2013,09,12,13,03,23.40
2013,09,12,13,04,23.40
2013,09,12,13,05,23.40
2013,09,12,13,06,23.40
2013,09,12,13,07,23.50
2013,09,12,13,08,23.60
2013,09,12,13,09,23.70
2013,09,12,13,10,23.70
2013,09,12,13,11,23.70
2013,09,12,13,12,23.70
2013,09,12,13,13,23.70
2013,09,12,13,14,23.70
2013,09,12,13,15,23.70
2013,09,12,13,16,23.70
2013,09,12,13,17,23.70
2013,09,12,13,18,23.70
2013,09,12,13,19,23.60
2013,09,12,13,20,23.50
2013,09,12,13,21,23.40
2013,09,12,13,22,23.30
2013,09,12,13,23,23.30
2013,09,12,13,24,23.30
2013,09,12,13,25,23.30
2013,09,12,13,26,23.30
2013,09,12,13,27,23.30
2013,09,12,13,28,23.30
2013,09,12,13,29,23.30
2013,09,12,13,30,23.30
2013,09,12,13,31,23.30
2013,09,12,13,32,23.30
2013,09,12,13,33,23.40
2013,09,12,13,34,23.40
2013,09,12,13,35,23.50
2013,09,12,13,36,23.40
2013,09,12,13,37,23.40
2013,09,12,13,38,23.40
2013,09,12,13,39,23.40
2013,09,12,13,40,23.40
2013,09,12,13,41,23.40
2013,09,12,13,42,23.40
2013,09,12,13,43,23.40
2013,09,12,13,44,23.50
2013,09,12,13,45,23.60
2013,09,12,13,46,23.60
2013,09,12,13,47,23.60
2013,09,12,13,48,23.40
2013,09,12,13,49,23.40
2013,09,12,13,50,23.30
2013,09,12,13,51,23.30
2013,09,12,13,52,23.30
2013,09,12,13,53,23.30
2013,09,12,13,54,23.30
2013,09,12,13,55,23.30
2013,09,12,13,56,23.30
2013,09,12,13,57,23.30
2013,09,12,13,58,23.40
2013,09,12,13,59,23.50
2013,09,12,14,00,23.50
2013,09,12,14,01,23.60
2013,09,12,14,02,23.70
2013,09,12,14,03,23.70
2013,09,12,14,04,23.80
2013,09,12,14,05,23.80
2013,09,12,14,06,23.60
2013,09,12,14,07,23.30
2013,09,12,14,08,23.10
2013,09,12,14,09,23.10
2013,09,12,14,10,22.90
2013,09,12,14,11,22.90
2013,09,12,14,12,22.90
2013,09,12,14,13,22.90
2013,09,12,14,14,22.90
2013,09,12,14,15,22.90
2013,09,12,14,16,22.90
2013,09,12,14,17,22.90
2013,09,12,14,18,22.90
2013,09,12,14,19,23.10
2013,09,12,14,20,23.10
2013,09,12,14,21,23.20
2013,09,12,14,22,23.20
2013,09,12,14,23,23.20
2013,09,12,14,24,23.10
2013,09,12,14,25,23.00
2013,09,12,14,26,22.90
2013,09,12,14,27,22.90
2013,09,12,14,28,22.90
2013,09,12,14,29,22.90
2013,09,12,14,30,22.80
2013,09,12,14,31,22.70
2013,09,12,14,32,22.70
2013,09,12,14,33,22.60
2013,09,12,14,34,22.60
2013,09,12,14,35,22.60
2013,09,12,14,36,22.50
2013,09,12,14,37,22.40
2013,09,12,14,38,22.20
2013,09,12,14,39,22.20
2013,09,12,14,40,22.10
2013,09,12,14,41,22.10
2013,09,12,14,42,22.00
2013,09,12,14,43,21.80
2013,09,12,14,44,21.80
2013,09,12,14,45,21.80
2013,09,12,14,46,21.80
2013,09,12,14,47,21.90
2013,09,12,14,48,22.00
2013,09,12,14,49,22.10
2013,09,12,14,50,22.20
2013,09,12,14,51,22.30
2013,09,12,14,52,22.40
2013,09,12,14,53,22.50
2013,09,12,14,54,22.30
2013,09,12,14,55,22.30
2013,09,12,14,56,22.20
2013,09,12,14,57,22.10
2013,09,12,14,58,22.00
2013,09,12,14,59,21.90
2013,09,12,15,00,21.70
2013,09,12,15,01,21.70
2013,09,12,15,02,21.60
2013,09,12,15,03,21.60
2013,09,12,15,04,21.60
2013,09,12,15,05,21.70
2013,09,12,15,06,21.70
2013,09,12,15,07,21.80
2013,09,12,15,08,21.90
2013,09,12,15,09,21.90
2013,09,12,15,10,21.90
2013,09,12,15,11,21.90
2013,09,12,15,12,21.90
2013,09,12,15,13,21.90
2013,09,12,15,14,22.00
2013,09,12,15,15,22.00
2013,09,12,15,16,22.00
2013,09,12,15,17,22.00
2013,09,12,15,18,22.00
2013,09,12,15,19,21.80
2013,09,12,15,20,21.70
2013,09,12,15,21,21.70
2013,09,12,15,22,21.70
2013,09,12,15,23,21.80
2013,09,12,15,24,21.90
2013,09,12,15,25,21.90
2013,09,12,15,26,21.90
2013,09,12,15,27,21.80
2013,09,12,15,28,21.70
2013,09,12,15,29,21.70
2013,09,12,15,30,21.70
2013,09,12,15,31,21.80
2013,09,12,15,32,21.80
2013,09,12,15,33,21.80
2013,09,12,15,34,21.90
2013,09,12,15,35,21.90
2013,09,12,15,36,21.90
2013,09,12,15,37,21.90
2013,09,12,15,38,21.90
2013,09,12,15,39,21.80
2013,09,12,15,40,21.80
2013,09,12,15,41,21.70
2013,09,12,15,42,21.70
2013,09,12,15,43,21.60
2013,09,12,15,44,21.60
2013,09,12,15,45,21.50
2013,09,12,15,46,21.40
2013,09,12,15,47,21.20
2013,09,12,15,48,21.10
2013,09,12,15,49,21.10
2013,09,12,15,50,21.10
2013,09,12,15,51,21.10
2013,09,12,15,52,21.10
2013,09,12,15,53,21.00
2013,09,12,15,54,20.90
2013,09,12,15,55,21.00
2013,09,12,15,56,21.00
2013,09,12,15,57,21.00
2013,09,12,15,58,21.00
2013,09,12,15,59,21.10
2013,09,12,16,00,21.00
2013,09,12,16,01,21.00
2013,09,12,16,02,21.00
2013,09,12,16,03,21.00
2013,09,12,16,04,21.00
2013,09,12,16,05,21.10
2013,09,12,16,06,21.10
2013,09,12,16,07,21.20
2013,09,12,16,08,21.20
2013,09,12,16,09,21.30
2013,09,12,16,10,21.40
2013,09,12,16,11,21.50
2013,09,12,16,12,21.60
2013,09,12,16,13,21.60
2013,09,12,16,14,21.70
2013,09,12,16,15,21.80
2013,09,12,16,16,21.90
2013,09,12,16,17,21.90
2013,09,12,16,18,22.00
2013,09,12,16,19,22.10
2013,09,12,16,20,22.20
2013,09,12,16,21,22.20
2013,09,12,16,22,22.20
2013,09,12,16,23,22.30
2013,09,12,16,24,22.30
2013,09,12,16,25,22.40
2013,09,12,16,26,22.50
2013,09,12,16,27,22.50
2013,09,12,16,28,22.60
2013,09,12,16,29,22.60
2013,09,12,16,30,22.70
2013,09,12,16,31,22.70
2013,09,12,16,32,22.70
2013,09,12,16,33,22.70
2013,09,12,16,34,22.60
2013,09,12,16,35,22.60
2013,09,12,16,36,22.60
2013,09,12,16,37,22.60
2013,09,12,16,38,22.70
2013,09,12,16,39,22.70
2013,09,12,16,40,22.80
2013,09,12,16,41,22.80
2013,09,12,16,42,22.70
2013,09,12,16,43,22.70
2013,09,12,16,44,22.70
2013,09,12,16,45,22.70
2013,09,12,16,46,22.70
2013,09,12,16,47,22.60
2013,09,12,16,48,22.60
2013,09,12,16,49,22.60
2013,09,12,16,50,22.50
2013,09,12,16,51,22.50
2013,09,12,16,52,22.40
2013,09,12,16,53,22.40
2013,09,12,16,54,22.40
2013,09,12,16,55,22.30
2013,09,12,16,56,22.30
2013,09,12,16,57,22.30
2013,09,12,16,58,22.30
2013,09,12,16,59,22.30
2013,09,12,17,00,22.30
2013,09,12,17,01,22.20
2013,09,12,17,02,22.20
2013,09,12,17,03,22.30
2013,09,12,17,04,22.30
2013,09,12,17,05,22.30
2013,09,12,17,06,22.30
2013,09,12,17,07,22.30
2013,09,12,17,08,22.20
2013,09,12,17,09,22.20
2013,09,12,17,10,22.20
2013,09,12,17,11,22.20
2013,09,12,17,12,22.20
2013,09,12,17,13,22.20
2013,09,12,17,14,22.20
2013,09,12,17,15,22.20
2013,09,12,17,16,22.20
2013,09,12,17,17,22.20
2013,09,12,17,18,22.10
2013,09,12,17,19,22.10
2013,09,12,17,20,22.10
2013,09,12,17,21,22.10
2013,09,12,17,22,22.10
2013,09,12,17,23,22.10
2013,09,12,17,24,22.10
2013,09,12,17,25,22.00
2013,09,12,17,26,22.00
2013,09,12,17,27,21.90
2013,09,12,17,28,21.90
2013,09,12,17,29,21.90
2013,09,12,17,30,22.00
2013,09,12,17,31,22.00
2013,09,12,17,32,22.10
2013,09,12,17,33,22.00
2013,09,12,17,34,22.00
2013,09,12,17,35,21.90
2013,09,12,17,36,21.80
2013,09,12,17,37,21.80
2013,09,12,17,38,21.80
2013,09,12,17,39,21.80
2013,09,12,17,40,21.80
2013,09,12,17,41,21.80
2013,09,12,17,42,21.80
2013,09,12,17,43,21.80
2013,09,12,17,44,21.80
2013,09,12,17,45,21.80
2013,09,12,17,46,21.80
2013,09,12,17,47,21.80
2013,09,12,17,48,21.80
2013,09,12,17,49,21.70
2013,09,12,17,50,21.60
2013,09,12,17,51,21.60
2013,09,12,17,52,21.60
2013,09,12,17,53,21.40
2013,09,12,17,54,21.40
2013,09,12,17,55,21.40
2013,09,12,17,56,21.30
2013,09,12,17,57,21.30
2013,09,12,17,58,21.40
2013,09,12,17,59,21.40
2013,09,12,18,00,21.40
2013,09,12,18,01,21.50
2013,09,12,18,02,21.60
2013,09,12,18,03,21.60
2013,09,12,18,04,21.60
2013,09,12,18,05,21.60
2013,09,12,18,06,21.60
2013,09,12,18,07,21.50
2013,09,12,18,08,21.40
2013,09,12,18,09,21.40
2013,09,12,18,10,21.30
2013,09,12,18,11,21.30
2013,09,12,18,12,21.20
2013,09,12,18,13,21.20
2013,09,12,18,14,21.10
2013,09,12,18,15,21.10
2013,09,12,18,16,21.00
2013,09,12,18,17,21.00
2013,09,12,18,18,21.00
2013,09,12,18,19,21.00
2013,09,12,18,20,21.00
2013,09,12,18,21,21.00
2013,09,12,18,22,21.00
2013,09,12,18,23,21.00
2013,09,12,18,24,21.00
2013,09,12,18,25,21.10
2013,09,12,18,26,21.10
2013,09,12,18,27,21.10
2013,09,12,18,28,21.20
2013,09,12,18,29,21.30
2013,09,12,18,30,21.30
2013,09,12,18,31,21.30
2013,09,12,18,32,21.30
2013,09,12,18,33,21.30
2013,09,12,18,34,21.30
2013,09,12,18,35,21.30
2013,09,12,18,36,21.30
2013,09,12,18,37,21.40
2013,09,12,18,38,21.30
2013,09,12,18,39,21.30
2013,09,12,18,40,21.30
2013,09,12,18,41,21.30
2013,09,12,18,42,21.30
2013,09,12,18,43,21.30
2013,09,12,18,44,21.30
2013,09,12,18,45,21.30
2013,09,12,18,46,21.30
2013,09,12,18,47,21.30
2013,09,12,18,48,21.30
2013,09,12,18,49,21.30
2013,09,12,18,50,21.30
2013,09,12,18,51,21.30
2013,09,12,18,52,21.30
2013,09,12,18,53,21.30
2013,09,12,18,54,21.20
2013,09,12,18,55,21.20
2013,09,12,18,56,21.20
2013,09,12,18,57,21.10
2013,09,12,18,58,21.10
2013,09,12,18,59,21.00
2013,09,12,19,00,21.00
2013,09,12,19,01,20.90
2013,09,12,19,02,20.90
2013,09,12,19,03,20.90
2013,09,12,19,04,20.80
2013,09,12,19,05,20.80
2013,09,12,19,06,20.80
2013,09,12,19,07,20.70
2013,09,12,19,08,20.70
2013,09,12,19,09,20.70
2013,09,12,19,10,20.70
2013,09,12,19,11,20.60
2013,09,12,19,12,20.60
2013,09,12,19,13,20.60
2013,09,12,19,14,20.60
2013,09,12,19,15,20.60
2013,09,12,19,16,20.60
2013,09,12,19,17,20.60
2013,09,12,19,18,20.60
2013,09,12,19,19,20.60
2013,09,12,19,20,20.60
2013,09,12,19,21,20.60
2013,09,12,19,22,20.60
2013,09,12,19,23,20.60
